RH
100 100 100 100 96 79 74 59 62 74 75 74 71 70 67 62 59 55 73 70 66 90 85 77 71 79 79 83 88 79 79 84 89 91 97 96 96 93 91 79 90 85 94 97 97 97 90 59 67 67 60 62 66 68
100 100 100 100 94 79 72 68 72 78 76 75 76 79 77 67 64 62 74 71 77 85 76 68 66 67 67 66 76 92 81 87 88 94 96 96 93 96 98 96 85 90 79 89 81 74 54 64 53 60 65 67 64 66
100 100 100 99 94 80 80 76 78 81 80 76 79 81 82 73 72 73 74 78 80 97 88 85 69 65 67 76 77 91 90 72 86 86 97 95 100 98 94 97 97 93 69 79 72 57 65 57 53 58 61 65 61 59
100 99 100 100 93 82 85 80 80 84 85 84 86 84 84 84 88 82 83 82 89 98 99 84 69 69 68 68 72 78 73 84 84 93 95 98 93 91 96 97 90 80 76 73 74 60 57 56 58 52 54 66 64 62
100 100 100 100 89 85 87 86 85 84 84 82 79 78 82 91 91 99 99 97 92 90 94 96 78 70 62 70 79 85 83 86 97 96 97 94 90 88 90 91 92 82 75 74 74 55 54 49 43 52 58 71 72 66
100 100 100 100 95 96 93 88 84 82 81 78 80 84 90 91 99 100 96 92 99 90 97 95 77 72 61 68 78 98 98 97 100 94 94 92 76 81 95 93 75 78 65 59 63 59 59 57 70 63 60 69 70 68
100 100 100 98 98 100 94 87 82 80 85 89 91 92 87 95 92 82 82 64 79 91 96 97 92 68 66 72 84 88 95 100 98 97 98 92 87 82 98 94 65 63 57 61 65 72 72 68 67 71 71 78 73 76
100 100 100 100 99 98 96 93 85 90 93 92 95 93 96 94 86 90 97 95 92 92 80 94 92 80 63 89 94 90 96 98 100 95 96 97 84 92 91 72 60 50 50 56 64 72 73 78 77 79 80 77 80 82
100 100 99 100 100 96 89 85 92 95 88 47 43 90 92 79 97 100 100 99 88 85 96 90 99 92 77 85 93 100 100 99 86 97 96 93 87 94 73 68 61 53 60 78 84 79 78 75 80 80 78 77 83 85
100 100 100 100 97 88 89 91 90 36 42 73 88 86 99 100 98 98 99 98 100 100 96 90 86 95 88 90 95 91 97 98 99 90 96 97 88 64 61 60 66 68 82 86 88 85 83 81 85 82 80 84 83 86
100 100 100 100 91 87 88 39 32 73 85 81 93 98 100 98 84 87 95 89 96 90 87 75 78 95 85 94 95 92 98 98 99 94 98 97 96 100 98 92 87 84 84 80 81 83 79 73 86 90 92 91 91 90
100 99 98 90 74 35 54 74 85 74 78 78 89 92 93 92 95 85 97 97 98 91 89 97 96 92 92 96 99 92 99 98 98 96 98 98 100 100 99 98 98 95 90 90 87 90 90 88 86 90 94 93 92 90
85 64 39 30 42 78 83 93 66 77 75 68 85 98 93 98 98 92 95 88 91 95 95 99 99 99 99 100 98 99 97 96 97 98 96 100 99 98 99 100 99 94 92 91 90 89 89 88 86 83 83 80 75 71
36 37 59 64 76 91 78 72 76 65 64 92 92 100 93 100 93 91 89 89 86 86 96 94 94 92 94 100 100 97 95 100 98 96 96 98 96 98 98 100 100 100 98 98 99 99 99 97 93 91 89 83 80 85
85 86 89 90 80 81 86 90 74 68 74 96 86 92 99 88 96 94 94 96 92 87 88 85 98 98 99 100 99 96 97 97 96 97 98 95 98 98 98 100 100 100 100 100 99 100 97 97 98 92 67 68 77 81
93 95 97 91 84 86 93 79 72 82 95 95 97 97 90 97 100 100 97 96 91 84 92 96 99 99 98 99 98 96 97 96 97 96 98 95 97 99 100 100 100 99 98 91 73 74 78 80 81 74 56 49 66 66
80 97 96 94 95 92 88 81 87 100 96 99 99 93 93 96 97 98 94 92 89 84 88 91 100 90 94 98 98 96 97 94 99 99 99 95 93 96 100 100 100 99 98 95 60 58 58 64 67 61 51 44 55 62
86 90 88 92 100 98 95 94 99 99 99 99 99 98 88 82 97 94 96 97 94 93 96 93 96 95 85 92 95 96 100 98 99 99 98 94 88 87 86 100 100 100 97 65 60 60 59 52 56 52 46 48 50 55
76 80 90 99 96 97 100 99 99 98 96 96 96 96 93 93 90 92 86 94 95 98 99 99 92 90 82 94 95 98 98 99 98 97 96 85 81 83 79 87 90 91 77 63 62 61 57 48 48 45 43 45 50 50
79 84 100 98 86 89 96 98 96 93 98 95 97 100 98 97 95 94 93 96 98 98 99 97 84 84 90 90 97 95 99 96 92 86 76 86 81 80 81 78 78 78 80 72 66 66 60 51 47 48 47 45 49 47
100 100 100 93 98 83 92 98 98 97 99 97 98 98 100 96 98 97 98 96 98 97 97 92 86 88 89 92 92 91 95 89 87 87 76 86 75 80 82 81 84 85 83 78 77 70 68 69 57 53 49 48 48 45
100 99 98 100 98 95 94 97 96 97 94 99 98 98 100 100 100 100 99 98 96 92 92 92 96 94 94 91 88 84 88 88 81 80 80 81 91 90 90 75 87 90 88 86 83 82 76 72 71 69 61 55 50 45
99 98 99 98 95 92 97 96 95 96 99 99 97 94 96 95 98 95 99 96 94 91 90 94 91 86 92 84 80 76 75 76 86 78 65 63 65 69 75 76 77 90 90 82 77 80 80 77 82 86 77 62 54 49
98 96 97 96 94 96 95 96 93 96 98 98 99 99 100 97 96 98 98 95 92 96 98 95 97 98 96 89 96 91 74 65 60 60 58 74 91 71 67 71 73 75 78 78 83 85 84 82 82 80 81 73 64 58
96 96 96 97 96 94 95 97 98 97 100 100 100 99 97 98 100 100 100 91 96 96 96 97 97 98 96 93 87 63 49 51 70 88 47 57 62 67 53 48 46 43 52 70 79 81 80 82 84 86 83 80 75 67
92 95 93 94 96 89 95 100 98 98 97 100 98 99 100 98 98 85 88 91 91 93 95 95 92 97 97 91 85 81 33 38 54 76 42 42 48 59 83 88 82 52 38 60 71 75 75 76 78 79 80 77 84 83
98 99 92 76 86 87 93 89 86 95 100 96 98 100 96 90 87 77 87 92 88 65 62 63 63 73 78 62 52 49 47 46 42 41 40 40 39 40 51 68 73 46 48 58 67 69 70 70 68 66 64 61 60 59
85 90 95 96 96 97 94 99 99 98 93 88 85 92 88 80 67 79 82 57 56 49 39 38 38 40 48 51 52 46 41 42 44 45 43 41 36 37 40 42 45 51 62 62 61 63 70 76 79 79 79 77 71 58
95 91 91 100 100 98 96 93 93 93 81 88 86 86 80 82 85 85 60 57 55 48 45 50 46 50 48 47 46 48 49 54 65 72 73 75 87 50 56 57 54 59 66 68 66 64 64 69 82 95 94 82 69 60
95 96 96 99 95 94 92 95 94 95 89 88 86 92 91 90 70 67 60 55 55 61 64 64 61 54 59 59 60 48 53 55 62 71 89 84 79 73 72 73 74 74 72 69 65 60 62 89 100 93 76 67 67 68
97 95 90 96 91 97 98 94 92 88 92 94 94 95 90 92 70 67 68 68 69 62 56 60 58 58 62 66 75 88 81 68 78 83 81 82 75 72 68 69 78 81 76 75 72 72 74 91 98 92 86 82 91 95
96 94 92 87 92 96 93 95 96 95 96 96 94 98 92 92 81 88 64 60 57 61 74 65 64 63 71 75 78 80 95 86 78 80 81 86 90 89 90 83 89 89 84 82 79 80 82 82 94 96 96 96 98 92
99 97 97 94 90 88 93 89 90 88 91 93 94 98 98 96 77 84 64 61 69 69 63 61 66 72 73 71 73 80 91 95 93 97 100 100 100 100 98 94 95 99 99 89 88 88 86 90 95 95 92 87 92 93
Wind_Speed
53 56 55 56 50 46 42 38 34 30 25 21 18 15 12 12 9 7 8 8 5 2 2 7 5 4 1 2 2 3 4 2 3 1 2 3 2 2 1 3 4 8 7 3 4 3 8 7 5 7 5 2 3 3
53 58 57 58 53 48 44 39 34 31 27 23 20 16 13 12 10 7 5 4 2 3 4 9 13 16 14 14 1 2 2 1 2 1 2 2 2 3 5 2 3 2 4 4 7 6 2 6 4 6 4 3 3 3
55 59 61 58 53 48 45 40 35 32 28 23 20 17 14 12 9 5 10 7 3 2 2 2 1 2 4 12 17 3 2 3 1 2 1 2 4 0 3 1 3 2 4 2 1 5 6 6 4 4 6 5 3 2
56 58 61 59 55 51 47 41 38 33 27 22 19 17 13 11 10 6 5 8 4 3 2 5 3 6 5 7 12 23 4 4 4 1 2 2 3 2 3 3 2 3 4 2 5 6 5 5 7 6 5 6 4 2
57 62 61 62 57 52 48 44 39 33 28 23 21 17 13 10 8 14 7 9 5 2 1 4 8 1 7 3 6 13 10 2 1 1 2 3 3 1 3 3 6 5 5 3 4 4 3 5 2 4 7 7 7 5
60 63 62 59 55 52 48 43 36 31 26 22 19 15 12 11 14 8 1 1 10 5 1 3 3 2 4 2 4 6 7 2 2 2 3 3 5 3 2 3 6 8 2 4 4 4 5 5 4 1 3 4 4 4
61 62 61 56 53 50 45 40 35 30 26 23 19 15 12 14 13 3 3 10 10 8 2 3 4 2 3 1 2 2 5 2 2 2 3 3 3 5 3 5 9 4 3 4 6 4 5 3 2 1 3 6 10 8
62 60 62 57 53 46 43 39 35 31 26 22 18 14 14 15 10 5 8 12 8 7 1 0 3 3 1 1 1 3 2 2 3 2 1 2 1 3 5 9 11 17 9 7 8 5 4 1 4 3 4 4 6 6
63 63 60 54 53 50 46 39 34 29 25 24 22 23 15 5 4 5 11 8 6 3 2 1 1 3 3 2 1 2 2 2 3 3 3 2 3 5 9 9 8 7 5 5 6 5 5 2 4 3 4 4 5 4
65 64 60 57 53 50 43 38 33 31 31 32 22 5 3 5 18 15 4 1 1 1 1 1 1 2 1 2 2 2 2 2 2 3 3 2 4 11 10 8 7 7 5 5 3 4 4 3 5 4 3 3 4 5
69 66 62 57 51 45 39 37 38 41 36 8 4 3 9 15 3 2 2 1 2 1 2 3 4 2 2 2 2 2 2 2 1 3 2 3 3 3 7 7 5 3 4 2 3 3 4 2 6 6 5 4 6 5
69 63 55 48 43 42 43 44 48 19 12 11 22 17 7 2 1 2 1 1 2 3 2 3 3 4 2 2 2 3 3 2 5 3 1 3 2 7 5 5 6 5 3 5 6 5 6 6 6 7 6 6 6 6
58 50 44 41 42 44 45 43 25 36 39 15 6 4 3 2 3 6 6 3 2 3 3 3 2 2 3 3 3 3 4 3 4 2 3 1 4 6 6 4 4 4 4 4 4 6 8 10 13 10 8 8 7 7
51 48 46 45 45 44 42 31 40 23 8 3 4 6 4 4 4 4 4 4 3 3 4 1 1 2 2 3 3 3 3 2 2 2 3 2 7 8 5 3 3 3 3 3 4 6 7 9 9 11 9 7 7 6
47 45 43 42 40 39 33 36 27 6 4 3 4 4 5 2 1 1 2 2 1 2 1 1 1 2 2 3 3 3 2 2 2 2 2 4 7 5 5 3 3 2 3 4 5 6 6 6 6 6 5 5 5 5
43 37 34 39 37 35 32 30 8 3 3 3 2 3 2 2 1 1 2 2 2 3 1 1 1 2 3 3 2 4 2 3 2 2 4 5 5 5 4 3 2 3 5 4 3 3 3 3 3 3 3 4 4 4
19 13 31 32 35 33 26 7 4 3 3 3 1 1 3 2 3 3 3 4 5 3 2 2 2 5 3 2 3 3 3 2 1 1 2 3 4 4 4 2 1 3 5 4 2 1 1 1 2 2 2 2 2 3
23 34 33 32 38 23 6 4 3 2 3 2 3 3 2 2 2 2 3 3 3 2 2 4 1 2 4 3 3 3 2 2 2 2 2 3 4 5 4 3 3 3 4 5 3 3 2 1 1 2 2 1 2 2
33 34 35 37 26 7 3 2 3 3 3 1 2 1 2 1 0 0 1 4 3 3 2 1 4 4 5 3 3 2 2 2 2 2 2 3 3 4 5 4 5 7 8 6 5 7 6 6 6 5 4 4 4 3
23 33 30 29 17 4 3 2 2 3 2 1 2 2 2 2 1 1 2 2 2 2 4 4 6 4 4 3 3 2 2 2 2 2 3 2 3 4 5 6 7 7 7 7 9 7 8 9 10 10 8 7 7 7
21 26 29 22 4 6 3 2 2 2 2 2 1 2 2 1 1 2 2 2 2 3 3 5 6 4 4 3 4 5 4 5 3 4 3 3 4 5 10 12 10 7 6 7 7 10 11 14 14 9 9 10 10 9
8 17 7 5 4 3 3 4 3 2 2 2 2 2 2 1 1 1 1 2 3 4 4 3 3 3 3 4 6 12 10 6 7 9 9 9 3 2 3 6 4 5 8 11 12 12 16 16 14 12 12 13 11 12
12 7 5 3 4 3 1 2 3 3 3 2 2 2 1 1 1 2 1 3 4 4 4 4 4 4 3 4 5 7 7 7 6 10 10 8 10 12 14 13 11 11 8 14 12 13 14 11 9 11 13 12 12 13
8 4 3 3 3 3 2 2 2 2 3 2 3 3 2 2 1 2 3 3 3 1 2 3 6 0 1 2 2 4 9 9 8 8 9 9 5 6 6 9 10 11 14 17 15 13 13 13 10 10 12 13 14 15
4 2 3 3 2 4 3 2 1 2 3 3 3 2 2 1 1 2 3 3 2 3 2 2 3 2 3 2 2 5 7 9 8 3 3 6 6 8 9 9 11 13 11 11 13 12 12 10 9 10 11 13 15 15
4 2 3 2 2 3 4 4 4 5 4 2 4 1 2 3 1 6 3 3 3 3 3 4 4 2 2 6 3 2 7 12 10 4 4 5 6 7 4 3 4 13 8 6 7 8 8 7 8 9 11 12 12 13
4 3 1 1 3 4 3 2 2 3 4 5 4 4 3 3 5 4 3 2 2 3 1 2 8 8 5 4 9 10 5 7 8 7 11 14 16 18 19 15 11 16 9 8 8 8 10 10 9 9 10 10 10 11
2 3 5 3 2 1 4 3 5 7 4 3 4 4 6 7 4 3 3 2 3 3 4 4 3 4 7 7 8 9 9 10 13 17 21 24 26 25 24 23 22 20 20 19 17 14 14 14 15 14 14 14 11 8
1 1 4 2 1 2 4 5 5 3 2 4 4 3 3 3 2 1 2 2 4 7 6 6 4 6 4 4 5 5 7 10 4 4 6 5 3 11 12 11 9 6 6 5 5 7 9 11 10 11 11 11 8 6
2 2 3 2 4 4 3 2 1 1 0 1 1 2 2 2 2 5 7 6 4 3 4 4 5 7 7 9 12 13 9 8 9 11 3 5 6 13 16 16 15 14 15 16 18 17 11 10 9 6 4 4 5 4
2 2 3 2 2 1 1 1 2 2 2 2 2 1 3 3 6 2 4 3 4 6 6 8 6 8 7 7 6 6 8 5 3 8 15 21 25 27 28 24 20 16 15 14 14 14 11 12 14 11 8 6 5 4
2 2 3 2 1 1 2 1 1 1 2 2 1 1 2 2 3 2 3 5 5 7 4 9 12 11 13 14 14 13 14 18 19 20 22 21 21 21 20 18 15 15 16 14 12 12 13 13 12 11 10 9 8 6
2 2 0 2 2 0 1 2 3 2 1 1 1 1 1 1 4 3 0 2 2 4 10 14 14 16 14 11 10 7 7 9 15 16 17 18 18 19 20 17 15 14 13 13 13 12 12 12 12 10 9 8 7 6
Wind_Direction
207 200 196 191 185 185 183 178 175 172 170 164 157 151 136 123 113 102 106 85 92 145 249 189 189 175 224 172 232 314 352 0 334 15 9 349 297 261 249 185 193 169 168 185 161 211 266 157 79 168 209 253 251 267
206 193 193 187 181 181 179 174 173 174 172 165 160 157 148 138 129 117 109 123 57 130 230 215 239 261 239 211 191 248 184 247 250 36 15 348 312 306 324 244 357 221 181 186 182 207 228 203 195 209 158 208 270 278
198 185 181 183 180 178 178 176 174 175 171 167 162 163 160 152 140 123 126 127 36 349 297 342 300 4 276 237 230 205 249 206 111 142 105 271 268 42 276 18 295 299 344 263 129 240 222 230 236 232 205 216 244 265
193 190 184 185 179 177 175 175 172 170 165 166 167 168 169 167 164 163 129 159 122 90 322 281 322 329 293 279 218 210 120 95 102 186 224 260 254 154 269 306 235 225 328 261 271 288 300 253 229 234 230 217 207 175
192 185 176 178 176 175 172 171 168 165 164 165 171 170 171 173 175 198 199 184 186 134 265 287 316 339 338 326 208 204 191 144 125 223 235 226 255 287 248 234 238 195 196 182 234 289 254 242 225 193 202 200 195 169
183 177 174 174 171 170 170 166 161 161 166 165 169 170 174 169 179 160 135 134 181 165 136 295 312 313 343 333 183 173 180 171 189 214 218 228 237 151 261 267 256 221 202 157 279 318 252 277 317 107 181 188 158 158
176 169 168 171 171 169 165 159 156 162 167 169 172 172 167 173 172 127 182 150 156 158 96 307 321 296 303 279 134 115 167 182 203 241 225 227 219 184 222 239 268 290 9 332 293 304 276 209 265 123 118 118 117 102
170 168 166 166 166 159 157 159 161 165 163 161 158 148 154 155 129 106 116 124 138 91 119 42 276 345 304 280 226 155 179 202 202 249 243 222 238 206 248 237 234 261 293 303 317 250 266 318 92 77 91 105 99 106
163 164 162 160 156 155 156 158 160 155 150 144 133 136 119 91 98 127 148 120 82 85 134 121 131 266 341 265 229 181 196 225 199 233 227 175 206 232 238 250 256 266 253 295 317 304 273 191 140 133 111 102 120 122
156 157 155 156 156 154 152 155 152 147 139 131 132 86 100 103 118 121 124 139 53 81 142 236 139 270 71 342 303 275 210 239 240 238 138 235 254 264 281 266 231 256 278 308 267 264 235 206 169 161 123 109 127 135
141 144 148 151 148 146 150 146 142 138 135 143 108 83 119 125 97 42 98 192 148 223 206 229 207 231 183 208 261 271 238 212 270 244 203 246 259 312 325 335 346 298 266 208 222 296 326 271 164 144 122 111 111 107
139 140 142 141 141 142 141 141 142 129 135 146 110 110 110 117 123 160 197 141 145 230 204 181 223 210 225 181 242 242 259 220 251 129 228 271 321 324 340 344 351 7 41 55 53 56 46 59 101 107 108 103 94 91
128 130 132 136 139 140 143 142 141 128 120 90 74 108 140 132 143 179 185 217 211 196 209 198 199 217 174 186 231 250 250 236 112 209 225 294 316 331 335 338 337 12 57 75 69 72 77 72 72 84 85 81 91 80
127 134 139 140 142 144 143 141 138 126 90 99 139 135 174 183 211 185 178 180 215 175 153 134 231 210 228 202 232 247 244 261 271 298 268 320 339 324 319 330 334 358 35 70 74 75 76 80 80 78 78 77 80 68
126 132 136 137 141 145 139 143 142 112 106 105 106 183 192 170 72 154 144 118 194 135 164 217 218 253 238 253 233 265 285 260 230 262 271 330 328 317 319 340 351 44 73 76 81 92 96 101 102 99 79 72 74 73
120 120 135 142 140 139 145 150 125 69 61 91 102 100 135 89 275 151 162 181 180 182 110 207 239 257 246 237 255 234 205 229 237 297 318 316 313 317 328 354 51 95 86 66 63 91 108 107 104 113 91 59 62 64
106 126 144 142 149 150 144 112 99 56 94 121 159 150 162 133 164 183 168 192 177 174 193 153 182 226 300 264 258 210 218 234 241 261 291 272 295 309 320 345 30 70 58 351 334 46 99 88 104 82 20 5 20 26
120 143 149 150 144 131 84 62 80 92 163 161 182 191 177 121 141 182 173 155 141 172 121 215 101 235 232 238 253 231 222 276 254 250 265 296 314 314 276 262 224 214 250 251 256 246 252 272 285 292 294 267 308 300
144 153 154 154 148 105 107 67 84 171 226 140 109 97 95 81 57 323 158 129 117 91 95 221 229 219 227 219 223 261 251 197 251 281 278 292 307 308 302 265 259 246 246 238 242 254 266 262 257 267 263 240 250 267
142 156 157 152 149 93 88 70 117 125 174 165 109 145 117 116 101 133 112 114 124 143 211 219 224 213 202 213 193 193 224 193 190 297 288 266 259 298 297 279 268 272 264 261 257 258 261 266 261 253 247 241 236 251
136 162 153 151 68 57 94 135 90 126 139 100 121 112 96 44 92 148 167 146 187 213 230 230 235 221 216 216 226 215 197 185 215 217 240 280 293 286 292 295 288 270 247 260 253 261 249 251 269 268 262 256 254 253
100 136 101 96 91 63 79 13 127 112 78 131 103 73 83 72 266 240 261 208 238 220 209 209 221 202 224 239 242 231 233 240 256 264 274 279 280 303 283 290 277 271 270 262 261 256 272 277 280 274 261 262 258 247
119 106 80 95 93 57 58 9 76 27 111 163 37 98 149 189 56 340 281 235 258 242 239 218 220 213 222 266 258 249 238 237 247 263 280 282 285 289 285 284 275 260 274 280 280 265 268 287 280 256 253 247 245 244
108 66 87 89 81 98 72 50 62 83 61 122 130 191 260 205 343 65 250 253 245 277 244 224 190 228 332 300 254 243 250 241 243 267 268 256 287 298 310 302 297 279 269 278 279 277 277 279 280 264 250 248 246 245
104 21 94 71 25 104 109 111 79 89 152 189 138 254 245 121 134 225 234 266 248 241 216 194 188 194 182 263 278 261 202 202 191 213 263 227 257 296 309 314 311 311 297 267 264 270 276 276 266 261 258 252 251 252
86 318 92 121 122 136 162 136 186 172 142 164 216 193 66 104 121 239 229 230 236 217 191 180 175 169 272 218 243 235 206 201 199 189 259 232 255 258 262 282 305 310 303 286 280 282 288 284 270 262 262 260 255 257
120 188 124 70 115 115 82 49 66 119 164 179 185 158 129 200 239 249 272 230 221 228 101 201 214 213 239 301 274 261 215 206 216 256 282 286 285 281 272 260 262 288 285 272 276 285 290 289 278 270 273 278 270 258
133 159 150 199 79 75 139 160 171 192 196 176 127 181 189 201 233 235 208 11 248 348 28 26 6 313 286 283 274 284 282 272 272 275 280 281 285 289 289 284 281 273 265 267 270 270 269 269 270 273 274 274 281 275
117 181 113 97 164 176 192 174 201 216 148 150 166 213 239 231 257 303 14 12 347 340 4 21 6 353 347 324 296 293 296 285 286 303 291 286 322 316 330 324 311 274 254 247 260 272 277 275 271 264 264 266 270 261
204 163 107 109 138 214 238 168 187 251 292 112 321 317 301 280 300 316 326 324 359 45 54 50 31 22 8 352 330 329 329 316 282 248 228 264 272 295 299 300 294 287 291 294 297 295 279 228 209 233 228 215 207 201
111 74 67 65 192 240 242 334 354 15 36 40 23 216 263 302 315 5 26 22 76 82 80 40 27 1 341 330 314 305 309 309 290 297 298 292 289 291 292 293 289 289 282 273 269 267 250 227 226 226 219 207 196 207
54 128 137 134 220 301 44 74 141 111 352 44 288 294 299 298 286 290 10 53 72 53 30 350 336 333 326 315 304 292 284 291 303 308 307 306 304 302 300 292 287 283 274 264 259 254 245 237 226 219 216 212 212 212
61 61 39 128 85 114 295 98 34 355 49 22 330 306 259 236 245 283 109 78 22 339 343 339 333 326 323 323 323 319 311 321 323 316 306 301 296 297 297 291 285 273 272 260 249 236 223 216 212 208 199 193 192 192